Change the Weather History Date:

Thursday, July 25, 2013

  Actual Average Record
Temperature  
Mean Temperature 66 °F 73 °F  
Max Temperature 79 °F 84 °F 100 °F (1934)
Min Temperature 52 °F 62 °F 48 °F (1953)
Degree Days  
Heating Degree Days 0 0  
Month to date heating degree days 0 0  
Since 1 June heating degree days 9 37  
Since 1 July heating degree days 0 0  
Cooling Degree Days 1 8  
Month to date cooling degree days 319 197  
Year to date cooling degree days 550 386  
Since 1 June cooling degree days 479 343  
Growing Degree Days 16 (Base 50)    
Moisture  
Dew Point 51 °F    
Average Humidity 64    
Maximum Humidity 89    
Minimum Humidity 38    
Precipitation  
Precipitation 0.00 in 0.15 in 0.97 in (2010)
Month to date precipitation 2.36 3.46  
Year to date precipitation 19.10 22.29  
Sea Level Pressure  
Sea Level Pressure 30.04 in    
Wind  
Wind Speed 3 mph (NW)    
Max Wind Speed 9 mph    
Max Gust Speed 100 mph    
Visibility 10 miles    
Events      
T = Trace of Precipitation, MM = Missing Value Source: NWS Daily Summary

Daily Weather History Graph

Daily Weather History Graph

Search for Another Location

Airport or City:

Trip Planner

Search our weather history database for the weather conditions in past years. The results will help you decide how hot, cold, wet, or windy it might be!

Date:

Astronomy

Jul. 25, 2013 Rise Set
Actual Time 5:56 AM EDT 8:31 PM EDT
Civil Twilight 5:24 AM EDT 9:02 PM EDT
Nautical Twilight 4:45 AM EDT 9:42 PM EDT
Astronomical Twilight 4:00 AM EDT 10:26 PM EDT
Moon 10:07 PM EDT (7/25) 9:26 AM EDT (7/25)
Length of Visible Light 15h 38m
Length of Day
14h 34m
Waning Gibbous, 88% of the Moon is Illuminated
Jul 25
Waning Gibbous
Jul 29
Last Quarter
Aug 6
New
Aug 14
First Quarter
Aug 20
Full

Hourly Weather History & Observations

Time (EDT) Temp. Dew Point Humidity Pressure Visibility Wind Dir Wind Speed Gust Speed Precip Events Conditions
12:54 AM 57.9 °F 48.0 °F 70% 30.03 in 10.0 mi ENE 3.5 mph - N/A   Scattered Clouds
1:54 AM 60.1 °F 46.9 °F 62% 30.02 in 10.0 mi Variable 3.5 mph - N/A   Mostly Cloudy
2:54 AM 55.0 °F 48.9 °F 80% 30.01 in 10.0 mi North 3.5 mph - N/A   Clear
3:54 AM 53.1 °F 48.9 °F 86% 30.00 in 10.0 mi West 3.5 mph - N/A   Clear
4:54 AM 53.1 °F 48.0 °F 83% 30.01 in 10.0 mi Calm Calm - N/A   Clear
5:54 AM 52.0 °F 48.0 °F 86% 30.02 in 10.0 mi NW 3.5 mph - N/A   Clear
6:54 AM 54.0 °F 50.0 °F 86% 30.03 in 10.0 mi West 5.8 mph - N/A   Clear
7:54 AM 57.0 °F 50.0 °F 77% 30.05 in 10.0 mi West 4.6 mph - N/A   Scattered Clouds
8:54 AM 60.1 °F 48.0 °F 64% 30.05 in 10.0 mi Calm Calm - N/A   Scattered Clouds
9:54 AM 62.1 °F 48.9 °F 62% 30.06 in 10.0 mi Calm Calm - N/A   Scattered Clouds
10:54 AM 66.0 °F 51.1 °F 59% 30.06 in 10.0 mi Variable 3.5 mph - N/A   Overcast
11:54 AM 69.1 °F 51.1 °F 53% 30.06 in 10.0 mi Calm Calm - N/A   Partly Cloudy
12:54 PM 72.0 °F 52.0 °F 49% 30.05 in 10.0 mi Variable 3.5 mph - N/A   Scattered Clouds
1:54 PM 73.9 °F 53.1 °F 48% 30.04 in 10.0 mi ESE 5.8 mph - N/A   Mostly Cloudy
2:54 PM 75.0 °F 53.1 °F 46% 30.03 in 10.0 mi Variable 5.8 mph - N/A   Scattered Clouds
3:54 PM 73.9 °F 52.0 °F 46% 30.02 in 10.0 mi Variable 3.5 mph - N/A   Mostly Cloudy
4:54 PM 78.1 °F 51.1 °F 39% 30.01 in 10.0 mi Variable 4.6 mph - N/A   Mostly Cloudy
5:54 PM 75.0 °F 51.1 °F 43% 30.02 in 10.0 mi NNE 6.9 mph - N/A   Overcast
6:54 PM 75.9 °F 48.9 °F 38% 30.03 in 10.0 mi North 6.9 mph - N/A   Mostly Cloudy
7:54 PM 73.9 °F 51.1 °F 45% 30.04 in 10.0 mi North 4.6 mph - N/A   Clear
8:54 PM 66.9 °F 55.0 °F 66% 30.05 in 10.0 mi Calm Calm - N/A   Scattered Clouds
9:54 PM 63.0 °F 55.0 °F 75% 30.06 in 10.0 mi West 3.5 mph - N/A   Clear
10:54 PM 62.1 °F 54.0 °F 75% 30.06 in 10.0 mi West 3.5 mph - N/A   Clear
11:54 PM 61.0 °F 54.0 °F 78% 30.06 in 10.0 mi West 4.6 mph - N/A   Clear